Flag for Sweden

Past Weather in Norrköping, Sweden — Yesterday and Last 2 Weeks

Now
55 °F

Broken clouds.


Feels Like: 55 °F
Forecast: 60 / 52 °F
Wind: No wind

Location: Norrkoping Airport

Current Time: Jul 5, 2020 at 6:17:57 am

Latest Report: Jul 5, 2020 at 5:50 am


Visibility: N/A

Pressure: 29.56 "Hg

Humidity: 94%

Dew Point: 54 °F

Location of NorrköpingLocation

Past Weather in Norrköping — Graph

°F

Norrköping Temperature Yesterday

Maximum temperature yesterday: 66 °F (at 11:50 am)
Minimum temperature yesterday: 54 °F (at 2:50 am)
Average temperature yesterday: 59 °F

High & Low Weather Summary for the Past Weeks

 TemperatureHumidityPressure
High86 °F (Jun 26, 1:20 pm)100% (Jun 22, 3:20 am)30.33 "Hg (Jun 22, 3:20 am)
Low45 °F (Jun 22, 2:20 am)24% (Jun 26, 1:50 pm)29.27 "Hg (Jul 1, 1:50 am)
Average66 °F68%29.87 "Hg
* Reported Jun 20 4:20 am — Jul 5 4:50 am, Norrköping. Weather by CustomWeather, © 2020

Note: Actual official high and low records may vary slightly from our data, if they occured in-between our weather recording intervals... More about our weather records

Norrköping Weather History for the Previous 24 Hours

Scroll right to see more
 ConditionsComfort  
Time TempWeatherWind HumidityBarometerVisibility
4:50 am
Sun, Jul 5
54 °FBroken clouds.2 mph100%29.59 "HgN/A
4:20 am55 °FPartly sunny.6 mph94%29.59 "HgN/A
3:50 am54 °FPassing clouds.5 mph100%29.59 "HgN/A
3:20 am55 °FPassing clouds.5 mph94%29.59 "HgN/A
2:50 am55 °FPassing clouds.6 mph94%29.59 "HgN/A
1:50 am55 °FCool.6 mph94%29.59 "HgN/A
1:20 am57 °FCool.5 mph94%29.59 "HgN/A
12:50 am57 °FPassing clouds.7 mph94%29.59 "HgN/A
12:20 am57 °FCool.6 mph94%29.59 "HgN/A
11:50 pm
Sat, Jul 4
59 °FCool.5 mph94%29.59 "HgN/A
11:20 pm59 °FPartly cloudy.6 mph94%29.59 "HgN/A
10:50 pm59 °FPassing clouds.6 mph94%29.59 "HgN/A
10:20 pm59 °FLight rain. Passing clouds.7 mph100%29.59 "HgN/A
9:50 pm61 °FLight rain. Passing clouds.5 mph94%29.59 "HgN/A
9:20 pm61 °FLight rain. Broken clouds.5 mph94%29.59 "HgN/A
8:50 pm61 °FPartly sunny.5 mph94%29.59 "HgN/A
8:20 pm61 °FBroken clouds.3 mph94%29.59 "HgN/A
7:50 pm61 °FPartly sunny.7 mph94%29.59 "HgN/A
7:20 pm61 °FPartly sunny.7 mph94%29.59 "HgN/A
6:50 pm61 °FScattered clouds.8 mph94%29.59 "HgN/A
6:20 pm61 °FScattered clouds.8 mph94%29.59 "HgN/A
5:50 pm61 °FLight rain. Broken clouds.12 mph94%29.62 "Hg3 mi
5:20 pm63 °FPartly sunny.6 mph88%29.59 "HgN/A
4:50 pm61 °FFog.12 mph94%29.59 "Hg2 mi
4:20 pm63 °FDrizzle. Broken clouds.10 mph83%29.59 "Hg4 mi
3:50 pm63 °FPartly sunny.8 mph88%29.59 "HgN/A
3:20 pm63 °FDrizzle. Mostly cloudy.9 mph88%29.59 "HgN/A
2:50 pm63 °FLight rain. Broken clouds.10 mph88%29.59 "HgN/A
2:20 pm61 °FDrizzle. Broken clouds.12 mph94%29.59 "Hg6 mi
1:50 pm61 °FLight rain. Mostly cloudy.16 mph88%29.59 "HgN/A
1:20 pm61 °FRain. Broken clouds.18 mph88%29.56 "Hg6 mi
12:50 pm63 °FHeavy rain. Broken clouds.20 mph83%29.56 "Hg3 mi
12:20 pm64 °FMostly cloudy.17 mph78%29.56 "HgN/A
11:50 am66 °FScattered clouds.16 mph78%29.56 "HgN/A
11:20 am64 °FScattered clouds.14 mph83%29.56 "HgN/A
10:50 am63 °FCloudy.13 mph83%29.56 "HgN/A
10:20 am61 °FBroken clouds.12 mph88%29.56 "HgN/A
9:50 am61 °FOvercast.9 mph83%29.59 "HgN/A
9:20 am59 °FMore clouds than sun.10 mph88%29.59 "HgN/A
8:50 am57 °FCloudy.9 mph94%29.59 "HgN/A
8:20 am57 °FBroken clouds.10 mph88%29.59 "HgN/A
7:50 am55 °FDrizzle. Broken clouds.8 mph94%29.62 "HgN/A
7:20 am55 °FDrizzle. Partly sunny.9 mph94%29.62 "HgN/A
6:50 am54 °FDrizzle. Broken clouds.8 mph94%29.65 "HgN/A
6:20 am54 °FLight rain. Scattered clouds.8 mph94%29.65 "HgN/A
Weather by CustomWeather, © 2020

See weather overview